| time (UTC) | temp F | wind direction | speed MPH | gust MPH | rain 1hr in | rain 24hr in | rain mn in | humidity % | barometer mb |
| 20260503002213 | 60 | 184 | 0.0 | 0.0 | 0.00 | 0.09 | 0.00 | 26 | 1024.3 |
| 20260503001713 | 59 | 122 | 0.0 | 0.0 | 0.00 | 0.09 | 0.00 | 25 | 1024.3 |
| 20260503001210 | 60 | 89 | 0.0 | 0.0 | 0.00 | 0.09 | 0.00 | 24 | 1024.2 |
| 20260503000713 | 60 | 92 | 0.0 | 0.0 | 0.00 | 0.09 | 0.00 | 25 | 1024.1 |
| 20260503000211 | 60 | 111 | 0.0 | 0.0 | 0.00 | 0.09 | 0.00 | 25 | 1024.0 |
| 20260502235713 | 60 | 94 | 0.0 | 0.0 | 0.00 | 0.09 | 0.00 | 24 | 1023.9 |
| 20260502235213 | 60 | 200 | 0.0 | 0.0 | 0.00 | 0.09 | 0.00 | 25 | 1023.8 |
| 20260502234710 | 61 | 107 | 0.0 | 0.0 | 0.00 | 0.09 | 0.00 | 24 | 1023.7 |
| 20260502234213 | 62 | 163 | 0.0 | 0.0 | 0.00 | 0.09 | 0.00 | 24 | 1023.6 |
| 20260502233710 | 61 | 114 | 0.0 | 0.0 | 0.00 | 0.09 | 0.00 | 24 | 1023.5 |
| 20260502233210 | 60 | 142 | 0.0 | 0.0 | 0.00 | 0.09 | 0.00 | 25 | 1023.4 |
| 20260502232713 | 59 | 77 | 0.0 | 0.0 | 0.00 | 0.09 | 0.00 | 24 | 1023.3 |
| 20260502232210 | 59 | 70 | 0.0 | 0.0 | 0.00 | 0.09 | 0.00 | 24 | 1023.3 |
| 20260502231710 | 60 | 124 | 0.0 | 0.0 | 0.00 | 0.09 | 0.00 | 25 | 1023.1 |
| 20260502231210 | 61 | 139 | 0.0 | 0.0 | 0.00 | 0.09 | 0.00 | 25 | 1023.0 |
| 20260502230713 | 60 | 70 | 0.0 | 0.0 | 0.00 | 0.09 | 0.00 | 25 | 1023.0 |
| 20260502230210 | 59 | 55 | 0.0 | 0.0 | 0.00 | 0.09 | 0.00 | 26 | 1022.9 |
| 20260502225710 | 59 | 87 | 0.0 | 0.0 | 0.00 | 0.09 | 0.00 | 26 | 1022.8 |
| 20260502225213 | 60 | 142 | 0.0 | 0.0 | 0.00 | 0.10 | 0.00 | 24 | 1022.8 |
| 20260502224713 | 60 | 16 | 0.0 | 0.0 | 0.00 | 0.10 | 0.00 | 25 | 1022.7 |
| 20260502224210 | 61 | 104 | 0.0 | 0.0 | 0.00 | 0.13 | 0.00 | 23 | 1022.7 |
| 20260502223710 | 61 | 91 | 0.0 | 0.0 | 0.00 | 0.14 | 0.00 | 24 | 1022.6 |
| 20260502223210 | 61 | 1 | 0.0 | 0.0 | 0.00 | 0.15 | 0.00 | 23 | 1022.4 |
| 20260502222713 | 62 | 172 | 0.0 | 0.0 | 0.00 | 0.16 | 0.00 | 21 | 1022.5 |
| 20260502222210 | 62 | 177 | 0.0 | 0.0 | 0.00 | 0.17 | 0.00 | 21 | 1022.5 |
| 20260502221710 | 62 | 179 | 0.0 | 0.0 | 0.00 | 0.17 | 0.00 | 21 | 1022.4 |
| 20260502221210 | 63 | 152 | 0.0 | 0.0 | 0.00 | 0.17 | 0.00 | 21 | 1022.3 |
| 20260502220710 | 62 | 139 | 0.0 | 0.0 | 0.00 | 0.17 | 0.00 | 21 | 1022.4 |
| 20260502220210 | 61 | 211 | 0.0 | 0.0 | 0.00 | 0.17 | 0.00 | 21 | 1022.4 |
| 20260502215710 | 61 | 256 | 0.0 | 0.0 | 0.00 | 0.17 | 0.00 | 21 | 1022.3 |
| 20260502215210 | 61 | 156 | 0.0 | 0.0 | 0.00 | 0.18 | 0.00 | 20 | 1022.4 |
| 20260502214713 | 60 | 114 | 0.0 | 0.0 | 0.00 | 0.18 | 0.00 | 22 | 1022.4 |
| 20260502214210 | 61 | 89 | 0.0 | 0.0 | 0.00 | 0.18 | 0.00 | 22 | 1022.4 |
| 20260502213713 | 61 | 110 | 0.0 | 0.0 | 0.00 | 0.18 | 0.00 | 23 | 1022.3 |
| 20260502213213 | 61 | 154 | 0.0 | 0.0 | 0.00 | 0.18 | 0.00 | 22 | 1022.3 |
| 20260502212713 | 60 | 150 | 0.0 | 0.0 | 0.00 | 0.18 | 0.00 | 25 | 1022.3 |
| 20260502212210 | 59 | 89 | 0.0 | 0.0 | 0.00 | 0.19 | 0.00 | 23 | 1022.2 |
| 20260502211713 | 59 | 101 | 0.0 | 0.0 | 0.00 | 0.20 | 0.00 | 24 | 1022.3 |
| 20260502211210 | 60 | 87 | 0.0 | 0.0 | 0.00 | 0.21 | 0.00 | 24 | 1022.3 |
| 20260502210710 | 60 | 241 | 0.0 | 0.0 | 0.00 | 0.23 | 0.00 | 21 | 1022.3 |
| 20260502210210 | 60 | 238 | 0.0 | 0.0 | 0.00 | 0.25 | 0.00 | 23 | 1022.2 |
| 20260502205713 | 61 | 221 | 0.0 | 0.0 | 0.00 | 0.26 | 0.00 | 22 | 1022.2 |
| 20260502205210 | 60 | 212 | 0.0 | 0.0 | 0.00 | 0.29 | 0.00 | 24 | 1022.1 |
| 20260502204713 | 58 | 120 | 0.0 | 0.0 | 0.00 | 0.31 | 0.00 | 26 | 1022.0 |
| 20260502204210 | 57 | 63 | 0.0 | 0.0 | 0.00 | 0.33 | 0.00 | 24 | 1022.0 |
| 20260502203710 | 59 | 252 | 0.0 | 1.0 | 0.00 | 0.34 | 0.00 | 23 | 1021.9 |
| 20260502203210 | 61 | 120 | 0.0 | 0.0 | 0.00 | 0.35 | 0.00 | 24 | 1021.9 |
| 20260502202710 | 60 | 165 | 0.0 | 0.0 | 0.00 | 0.37 | 0.00 | 23 | 1021.9 |
| 20260502202213 | 58 | 212 | 0.0 | 0.0 | 0.00 | 0.38 | 0.00 | 23 | 1021.8 |
| 20260502201713 | 58 | 246 | 0.0 | 0.0 | 0.00 | 0.39 | 0.00 | 22 | 1021.8 |
| 20260502201213 | 58 | 249 | 0.0 | 0.0 | 0.00 | 0.40 | 0.00 | 21 | 1021.7 |
| 20260502200713 | 59 | 203 | 0.0 | 0.0 | 0.00 | 0.42 | 0.00 | 21 | 1021.6 |
| 20260502200210 | 58 | 105 | 0.0 | 0.0 | 0.00 | 0.44 | 0.00 | 21 | 1021.6 |
| 20260502195710 | 59 | 112 | 0.0 | 0.0 | 0.00 | 0.46 | 0.00 | 20 | 1021.6 |
| 20260502195213 | 59 | 256 | 0.0 | 0.0 | 0.00 | 0.48 | 0.00 | 20 | 1021.6 |
| 20260502194713 | 59 | 183 | 0.0 | 0.0 | 0.00 | 0.50 | 0.00 | 21 | 1021.6 |
| 20260502194210 | 59 | 97 | 0.0 | 0.0 | 0.00 | 0.51 | 0.00 | 22 | 1021.6 |
| 20260502193710 | 58 | 241 | 0.0 | 0.0 | 0.00 | 0.53 | 0.00 | 23 | 1021.4 |
| 20260502193213 | 57 | 321 | 0.0 | 0.0 | 0.00 | 0.54 | 0.00 | 23 | 1021.3 |
| 20260502192213 | 58 | 150 | 0.0 | 0.0 | 0.00 | 0.55 | 0.00 | 20 | 1021.3 |
| 20260502191713 | 58 | 215 | 0.0 | 0.0 | 0.00 | 0.55 | 0.00 | 22 | 1021.3 |
| 20260502191210 | 58 | 162 | 0.0 | 0.0 | 0.00 | 0.55 | 0.00 | 24 | 1021.3 |
| 20260502190713 | 58 | 212 | 0.0 | 0.0 | 0.00 | 0.55 | 0.00 | 22 | 1021.2 |
| 20260502190210 | 58 | 242 | 0.0 | 0.0 | 0.00 | 0.55 | 0.00 | 23 | 1021.2 |
| 20260502185710 | 58 | 148 | 0.0 | 0.0 | 0.00 | 0.55 | 0.00 | 25 | 1021.2 |
| 20260502185213 | 58 | 280 | 0.0 | 0.0 | 0.00 | 0.55 | 0.00 | 25 | 1021.2 |
| 20260502184713 | 57 | 183 | 0.0 | 0.0 | 0.00 | 0.55 | 0.00 | 24 | 1021.2 |
| 20260502184213 | 57 | 156 | 0.0 | 0.0 | 0.00 | 0.55 | 0.00 | 26 | 1021.2 |
| 20260502183710 | 56 | 155 | 0.0 | 0.0 | 0.00 | 0.55 | 0.00 | 27 | 1021.2 |
| 20260502183213 | 56 | 145 | 0.0 | 0.0 | 0.00 | 0.55 | 0.00 | 30 | 1021.1 |
| 20260502182213 | 53 | 63 | 0.0 | 0.0 | 0.00 | 0.55 | 0.00 | 32 | 1021.1 |
| 20260502181713 | 54 | 70 | 0.0 | 0.0 | 0.00 | 0.55 | 0.00 | 33 | 1021.0 |
| 20260502181210 | 55 | 278 | 0.0 | 0.0 | 0.00 | 0.55 | 0.00 | 32 | 1021.1 |
| 20260502180710 | 54 | 345 | 0.0 | 0.0 | 0.00 | 0.55 | 0.00 | 38 | 1021.0 |
| 20260502180210 | 54 | 73 | 0.0 | 0.0 | 0.00 | 0.55 | 0.00 | 34 | 1021.0 |
| 20260502170213 | 50 | 74 | 0.0 | 0.0 | 0.00 | 0.56 | 0.00 | 49 | 1020.4 |
| 20260502164210 | 49 | 356 | 0.0 | 0.0 | 0.00 | 0.56 | 0.00 | 58 | 1020.1 |
| 20260502163710 | 49 | 74 | 0.0 | 0.0 | 0.00 | 0.56 | 0.00 | 58 | 1020.0 |
| 20260502163210 | 49 | 73 | 0.0 | 0.0 | 0.00 | 0.56 | 0.00 | 56 | 1019.9 |
| 20260502162713 | 48 | 13 | 0.0 | 0.0 | 0.00 | 0.56 | 0.00 | 53 | 1019.9 |
| 20260502162213 | 48 | 47 | 0.0 | 0.0 | 0.00 | 0.56 | 0.00 | 54 | 1019.8 |
| 20260502161713 | 48 | 136 | 0.0 | 0.0 | 0.00 | 0.56 | 0.00 | 61 | 1019.8 |
| 20260502161213 | 47 | 112 | 0.0 | 0.0 | 0.00 | 0.56 | 0.00 | 60 | 1019.8 |
| 20260502160713 | 47 | 191 | 0.0 | 1.0 | 0.00 | 0.56 | 0.00 | 62 | 1019.7 |
| 20260502160210 | 46 | 55 | 0.0 | 0.0 | 0.00 | 0.56 | 0.00 | 65 | 1019.7 |
| 20260502152210 | 44 | 44 | 0.0 | 0.0 | 0.00 | 0.56 | 0.00 | 76 | 1019.5 |
| 20260502151710 | 44 | 332 | 0.0 | 1.0 | 0.00 | 0.56 | 0.00 | 77 | 1019.5 |
| 20260502151213 | 44 | 29 | 0.0 | 0.0 | 0.00 | 0.56 | 0.00 | 80 | 1019.6 |
| 20260502150713 | 43 | 115 | 0.0 | 0.0 | 0.00 | 0.56 | 0.00 | 81 | 1019.6 |
| 20260502150213 | 42 | 63 | 0.0 | 2.0 | 0.00 | 0.56 | 0.00 | 80 | 1019.6 |
| 20260502130709 | 37 | 79 | 0.0 | 0.0 | 0.00 | 0.56 | 0.00 | 89 | 1018.8 |
| 20260502130209 | 36 | 33 | 0.0 | 0.0 | 0.00 | 0.56 | 0.00 | 89 | 1018.8 |
| 20260502123709 | 34 | 250 | 0.0 | 0.0 | 0.00 | 0.56 | 0.00 | 91 | 1018.5 |
| 20260502123212 | 34 | 250 | 0.0 | 0.0 | 0.00 | 0.56 | 0.00 | 92 | 1018.5 |
| 20260502122712 | 33 | 247 | 0.0 | 0.0 | 0.00 | 0.56 | 0.00 | 93 | 1018.5 |
| 20260502122212 | 33 | 247 | 0.0 | 0.0 | 0.00 | 0.56 | 0.00 | 93 | 1018.6 |
| 20260502121710 | 33 | 247 | 0.0 | 0.0 | 0.00 | 0.56 | 0.00 | 93 | 1018.6 |
| 20260502121209 | 33 | 248 | 0.0 | 0.0 | 0.00 | 0.56 | 0.00 | 93 | 1018.6 |
| 20260502120710 | 33 | 248 | 0.0 | 0.0 | 0.00 | 0.56 | 0.00 | 93 | 1018.6 |
| 20260502120212 | 33 | 247 | 0.0 | 0.0 | 0.00 | 0.56 | 0.00 | 93 | 1018.5 |
| 20260502115710 | 33 | 248 | 0.0 | 0.0 | 0.00 | 0.56 | 0.00 | 93 | 1018.6 |
| 20260502115210 | 33 | 248 | 0.0 | 0.0 | 0.00 | 0.56 | 0.00 | 93 | 1018.6 |
| 20260502114713 | 33 | 248 | 0.0 | 0.0 | 0.00 | 0.56 | 0.00 | 92 | 1018.6 |
| 20260502114209 | 34 | 248 | 0.0 | 0.0 | 0.00 | 0.56 | 0.00 | 92 | 1018.6 |
| 20260502113710 | 34 | 248 | 0.0 | 0.0 | 0.00 | 0.56 | 0.00 | 91 | 1018.7 |
| 20260502113213 | 34 | 248 | 0.0 | 0.0 | 0.00 | 0.56 | 0.00 | 92 | 1018.7 |
| 20260502112709 | 34 | 248 | 0.0 | 0.0 | 0.00 | 0.56 | 0.00 | 93 | 1018.7 |
| 20260502112209 | 34 | 248 | 0.0 | 0.0 | 0.00 | 0.56 | 0.00 | 93 | 1018.8 |
| 20260502111712 | 33 | 248 | 0.0 | 0.0 | 0.00 | 0.56 | 0.00 | 93 | 1018.9 |
| 20260502111213 | 33 | 248 | 0.0 | 0.0 | 0.00 | 0.56 | 0.00 | 93 | 1018.9 |
| 20260502110709 | 33 | 248 | 0.0 | 0.0 | 0.00 | 0.56 | 0.00 | 92 | 1018.9 |
| 20260502110210 | 33 | 248 | 0.0 | 0.0 | 0.00 | 0.56 | 0.00 | 92 | 1018.9 |
| 20260502105713 | 33 | 247 | 0.0 | 0.0 | 0.00 | 0.56 | 0.00 | 92 | 1019.0 |
| 20260502105212 | 34 | 248 | 0.0 | 0.0 | 0.00 | 0.56 | 0.00 | 92 | 1018.9 |
| 20260502104713 | 34 | 248 | 0.0 | 0.0 | 0.00 | 0.56 | 0.00 | 93 | 1018.9 |
| 20260502104212 | 33 | 248 | 0.0 | 0.0 | 0.00 | 0.56 | 0.00 | 93 | 1019.1 |
| 20260502103713 | 33 | 248 | 0.0 | 0.0 | 0.00 | 0.56 | 0.00 | 93 | 1019.0 |
| 20260502103212 | 33 | 248 | 0.0 | 0.0 | 0.00 | 0.56 | 0.00 | 93 | 1019.0 |
| 20260502102713 | 34 | 248 | 0.0 | 0.0 | 0.00 | 0.56 | 0.00 | 93 | 1018.9 |
| 20260502102212 | 34 | 248 | 0.0 | 0.0 | 0.00 | 0.56 | 0.00 | 93 | 1018.9 |
| 20260502101709 | 34 | 247 | 0.0 | 0.0 | 0.00 | 0.56 | 0.00 | 93 | 1018.9 |
| 20260502101209 | 34 | 247 | 0.0 | 0.0 | 0.00 | 0.56 | 0.00 | 93 | 1018.9 |
| 20260502100712 | 34 | 248 | 0.0 | 0.0 | 0.00 | 0.56 | 0.00 | 93 | 1018.8 |
| 20260502100212 | 34 | 248 | 0.0 | 0.0 | 0.00 | 0.56 | 0.00 | 93 | 1018.8 |
| 20260502091212 | 35 | 247 | 0.0 | 0.0 | 0.00 | 0.56 | 0.00 | 95 | 1018.8 |
| 20260502090710 | 35 | 248 | 0.0 | 0.0 | 0.00 | 0.56 | 0.00 | 95 | 1019.0 |
| 20260502090209 | 35 | 248 | 0.0 | 0.0 | 0.00 | 0.56 | 0.00 | 95 | 1018.8 |
| 20260502071212 | 35 | 167 | 0.0 | 0.0 | 0.00 | 0.56 | 0.00 | 94 | 1019.3 |
| 20260502070712 | 35 | 239 | 0.0 | 0.0 | 0.00 | 0.56 | 0.00 | 94 | 1019.3 |
| 20260502070212 | 35 | 172 | 0.0 | 0.0 | 0.00 | 0.56 | 0.00 | 94 | 1019.5 |
| 20260502065712 | 35 | 163 | 0.0 | 4.0 | 0.00 | 0.56 | 0.00 | 95 | 1019.4 |
| 20260502065209 | 35 | 205 | 0.0 | 6.0 | 0.00 | 0.56 | 0.00 | 95 | 1019.4 |
| 20260502064712 | 35 | 194 | 5.0 | 5.0 | 0.00 | 0.57 | 0.00 | 95 | 1019.5 |
| 20260502064212 | 35 | 181 | 0.0 | 3.0 | 0.00 | 0.57 | 0.00 | 95 | 1019.4 |
| 20260502063712 | 35 | 191 | 0.0 | 5.0 | 0.00 | 0.57 | 0.00 | 95 | 1019.4 |
| 20260502063212 | 35 | 190 | 0.0 | 2.0 | 0.00 | 0.57 | 0.00 | 95 | 1019.4 |
| 20260502062709 | 35 | 194 | 0.0 | 5.0 | 0.00 | 0.57 | 0.00 | 95 | 1019.4 |
| 20260502062212 | 35 | 228 | 1.0 | 6.0 | 0.00 | 0.57 | 0.00 | 95 | 1019.3 |
| 20260502061712 | 34 | 200 | 0.0 | 3.0 | 0.00 | 0.58 | 0.00 | 95 | 1019.4 |
| 20260502061209 | 34 | 174 | 0.0 | 1.0 | 0.00 | 0.58 | 0.00 | 95 | 1019.4 |
| 20260502060712 | 34 | 149 | 0.0 | 4.0 | 0.00 | 0.59 | 0.00 | 95 | 1019.4 |
| 20260502060209 | 35 | 169 | 0.0 | 4.0 | 0.00 | 0.60 | 0.00 | 95 | 1019.3 |
| 20260502055713 | 35 | 226 | 0.0 | 4.0 | 0.00 | 0.61 | 0.00 | 95 | 1019.2 |
| 20260502055212 | 35 | 172 | 0.0 | 2.0 | 0.00 | 0.62 | 0.00 | 95 | 1019.3 |
| 20260502054712 | 35 | 153 | 0.0 | 0.0 | 0.00 | 0.62 | 0.00 | 95 | 1019.3 |
| 20260502054212 | 35 | 170 | 0.0 | 2.0 | 0.00 | 0.62 | 0.00 | 95 | 1019.3 |
| 20260502053709 | 35 | 172 | 0.0 | 4.0 | 0.00 | 0.62 | 0.00 | 95 | 1019.3 |
| 20260502053209 | 35 | 155 | 0.0 | 3.0 | 0.00 | 0.62 | 0.00 | 95 | 1019.2 |
| 20260502052709 | 35 | 163 | 0.0 | 2.0 | 0.00 | 0.62 | 0.00 | 95 | 1019.2 |
| 20260502052213 | 35 | 194 | 0.0 | 8.0 | 0.00 | 0.62 | 0.00 | 95 | 1019.3 |
| 20260502051712 | 35 | 186 | 0.0 | 0.0 | 0.00 | 0.62 | 0.00 | 95 | 1019.3 |
| 20260502051212 | 35 | 184 | 0.0 | 0.0 | 0.00 | 0.62 | 0.00 | 95 | 1019.3 |
| 20260502050710 | 35 | 200 | 0.0 | 1.0 | 0.00 | 0.62 | 0.00 | 95 | 1019.4 |
| 20260502050212 | 35 | 176 | 0.0 | 3.0 | 0.00 | 0.62 | 0.00 | 95 | 1019.4 |
| 20260502045713 | 36 | 185 | 0.0 | 1.0 | 0.00 | 0.62 | 0.00 | 95 | 1019.5 |
| 20260502045209 | 36 | 253 | 0.0 | 0.0 | 0.00 | 0.62 | 0.00 | 95 | 1019.6 |
| 20260502044709 | 36 | 193 | 0.0 | 0.0 | 0.00 | 0.62 | 0.00 | 95 | 1019.5 |
| 20260502044209 | 36 | 180 | 0.0 | 0.0 | 0.00 | 0.62 | 0.00 | 95 | 1019.5 |
| 20260502043713 | 36 | 181 | 0.0 | 0.0 | 0.00 | 0.62 | 0.00 | 94 | 1019.7 |
| 20260502043212 | 36 | 179 | 0.0 | 0.0 | 0.00 | 0.62 | 0.00 | 94 | 1019.6 |
| 20260502042712 | 36 | 180 | 0.0 | 0.0 | 0.00 | 0.62 | 0.00 | 94 | 1019.8 |
| 20260502042213 | 36 | 181 | 0.0 | 0.0 | 0.00 | 0.62 | 0.00 | 94 | 1019.9 |
| 20260502041712 | 36 | 181 | 0.0 | 0.0 | 0.00 | 0.62 | 0.00 | 94 | 1019.8 |
| 20260502041212 | 36 | 181 | 0.0 | 0.0 | 0.00 | 0.62 | 0.00 | 94 | 1019.8 |
| 20260502040712 | 37 | 180 | 0.0 | 0.0 | 0.00 | 0.62 | 0.00 | 94 | 1019.7 |
| 20260502040212 | 37 | 205 | 0.0 | 0.0 | 0.00 | 0.62 | 0.00 | 93 | 1019.8 |
| 20260502035712 | 37 | 174 | 0.0 | 0.0 | 0.00 | 0.62 | 0.00 | 93 | 1019.9 |
| 20260502035209 | 37 | 200 | 0.0 | 0.0 | 0.00 | 0.62 | 0.00 | 93 | 1019.9 |
| 20260502034712 | 37 | 276 | 0.0 | 0.0 | 0.00 | 0.62 | 0.00 | 93 | 1019.9 |
| 20260502034212 | 37 | 221 | 0.0 | 0.0 | 0.00 | 0.62 | 0.00 | 93 | 1019.9 |
| 20260502033712 | 37 | 232 | 0.0 | 0.0 | 0.00 | 0.62 | 0.00 | 94 | 1019.8 |
| 20260502033212 | 37 | 253 | 0.0 | 0.0 | 0.00 | 0.62 | 0.00 | 94 | 1019.8 |
| 20260502032712 | 37 | 250 | 0.0 | 0.0 | 0.00 | 0.62 | 0.00 | 94 | 1019.8 |
| 20260502032213 | 37 | 238 | 0.0 | 0.0 | 0.00 | 0.62 | 0.00 | 94 | 1019.7 |
| 20260502031709 | 37 | 243 | 0.0 | 0.0 | 0.00 | 0.62 | 0.00 | 94 | 1019.7 |
| 20260502031212 | 37 | 243 | 0.0 | 1.0 | 0.00 | 0.62 | 0.00 | 94 | 1019.7 |
| 20260502030713 | 37 | 239 | 0.0 | 0.0 | 0.00 | 0.62 | 0.00 | 94 | 1019.6 |
| 20260502030209 | 37 | 246 | 0.0 | 0.0 | 0.00 | 0.62 | 0.00 | 94 | 1019.5 |
| 20260502025709 | 37 | 243 | 0.0 | 3.0 | 0.00 | 0.62 | 0.00 | 94 | 1019.5 |
| 20260502025213 | 37 | 250 | 0.0 | 1.0 | 0.00 | 0.62 | 0.00 | 95 | 1019.5 |
| 20260502024712 | 36 | 256 | 0.0 | 1.0 | 0.00 | 0.62 | 0.00 | 95 | 1019.3 |
| 20260502024209 | 36 | 224 | 0.0 | 2.0 | 0.00 | 0.62 | 0.00 | 95 | 1019.2 |
| 20260502023709 | 36 | 250 | 0.0 | 0.0 | 0.00 | 0.62 | 0.00 | 95 | 1019.1 |
| 20260502023209 | 36 | 259 | 0.0 | 0.0 | 0.00 | 0.62 | 0.00 | 95 | 1018.9 |
| 20260502022709 | 36 | 224 | 0.0 | 0.0 | 0.01 | 0.62 | 0.00 | 94 | 1018.7 |
| 20260502022212 | 36 | 258 | 0.0 | 0.0 | 0.01 | 0.62 | 0.00 | 94 | 1018.8 |
| 20260502021709 | 36 | 249 | 0.0 | 0.0 | 0.01 | 0.62 | 0.00 | 94 | 1018.7 |
| 20260502021209 | 36 | 212 | 0.0 | 0.0 | 0.02 | 0.62 | 0.00 | 94 | 1018.7 |
| 20260502020712 | 36 | 242 | 0.0 | 0.0 | 0.03 | 0.62 | 0.00 | 94 | 1018.7 |
| 20260502020209 | 36 | 231 | 0.0 | 0.0 | 0.04 | 0.62 | 0.00 | 94 | 1018.6 |
| 20260502015709 | 36 | 253 | 0.0 | 0.0 | 0.05 | 0.62 | 0.00 | 94 | 1018.6 |
| 20260502015212 | 36 | 271 | 0.0 | 0.0 | 0.07 | 0.62 | 0.00 | 94 | 1018.7 |
| 20260502014709 | 36 | 219 | 0.0 | 0.0 | 0.09 | 0.62 | 0.00 | 93 | 1018.7 |
| 20260502014209 | 36 | 239 | 0.0 | 0.0 | 0.09 | 0.62 | 0.00 | 93 | 1018.7 |
| 20260502013712 | 36 | 256 | 0.0 | 1.0 | 0.09 | 0.62 | 0.00 | 93 | 1018.6 |
| 20260502013212 | 36 | 256 | 2.0 | 5.0 | 0.09 | 0.62 | 0.00 | 93 | 1018.5 |
| 20260502012709 | 36 | 203 | 0.0 | 0.0 | 0.08 | 0.61 | 0.00 | 92 | 1018.4 |
| 20260502012212 | 36 | 250 | 0.0 | 0.0 | 0.08 | 0.61 | 0.00 | 92 | 1018.4 |
| 20260502011712 | 36 | 242 | 0.0 | 0.0 | 0.08 | 0.61 | 0.00 | 92 | 1018.6 |
| 20260502011212 | 37 | 242 | 0.0 | 3.0 | 0.07 | 0.60 | 0.00 | 91 | 1018.5 |
| 20260502010709 | 37 | 250 | 0.0 | 0.0 | 0.06 | 0.59 | 0.00 | 91 | 1018.3 |
| 20260502010209 | 38 | 245 | 0.0 | 0.0 | 0.04 | 0.57 | 0.00 | 91 | 1018.2 |
| 20260502005712 | 38 | 207 | 0.0 | 0.0 | 0.04 | 0.56 | 0.00 | 91 | 1018.2 |
| 20260502005209 | 38 | 197 | 0.0 | 0.0 | 0.02 | 0.54 | 0.00 | 91 | 1018.3 |
| 20260502004709 | 38 | 266 | 0.0 | 0.0 | 0.01 | 0.53 | 0.00 | 91 | 1018.3 |
| 20260502004209 | 39 | 256 | 0.0 | 0.0 | 0.00 | 0.52 | 0.00 | 90 | 1018.2 |
| 20260502003709 | 39 | 253 | 0.0 | 0.0 | 0.00 | 0.52 | 0.00 | 90 | 1018.0 |
| 20260502003209 | 39 | 260 | 0.0 | 0.0 | 0.00 | 0.52 | 0.00 | 90 | 1017.9 |
| 20260502002709 | 39 | 264 | 0.0 | 0.0 | 0.00 | 0.52 | 0.00 | 90 | 1017.8 |